Time,TemperatureF,DewpointF,PressureIn,WindDirection,WindDirectionDegrees,WindSpeedMPH,WindSpeedGustMPH,Humidity,HourlyPrecipIn,Conditions,Clouds,dailyrainin,SoftwareType,DateUTC
2013-07-13 00:02:00,66.7,62.0,30.08,NE,56,0.0,1.0,85,0.00,,CLR,0.00,VWS V13.01,2013-07-13 04:02:00,
2013-07-13 00:07:00,66.6,62.0,30.08,NE,56,0.0,0.0,85,0.00,,CLR,0.00,VWS V13.01,2013-07-13 04:07:00,
2013-07-13 00:12:00,66.4,62.1,30.08,NE,56,0.0,0.0,86,0.00,,CLR,0.00,VWS V13.01,2013-07-13 04:12:00,
2013-07-13 00:17:00,66.3,62.3,30.09,NE,56,0.0,0.0,87,0.00,,CLR,0.00,VWS V13.01,2013-07-13 04:17:00,
2013-07-13 00:22:00,66.0,62.0,30.08,NE,56,0.0,0.0,87,0.00,,CLR,0.00,VWS V13.01,2013-07-13 04:22:00,
2013-07-13 00:27:00,65.8,61.8,30.08,NE,56,0.0,0.0,87,0.00,,CLR,0.00,VWS V13.01,2013-07-13 04:27:00,
2013-07-13 00:32:00,65.6,62.0,30.08,NE,56,0.0,0.0,88,0.00,,CLR,0.00,VWS V13.01,2013-07-13 04:32:00,
2013-07-13 00:37:00,65.4,61.8,30.08,NE,56,0.0,0.0,88,0.00,,CLR,0.00,VWS V13.01,2013-07-13 04:37:00,
2013-07-13 00:42:00,65.3,61.7,30.07,NE,56,0.0,0.0,88,0.00,,CLR,0.00,VWS V13.01,2013-07-13 04:42:00,
2013-07-13 00:47:00,65.3,62.0,30.08,NE,56,0.0,0.0,89,0.00,,CLR,0.00,VWS V13.01,2013-07-13 04:47:00,
2013-07-13 00:52:00,65.3,62.0,30.08,NE,56,0.0,1.0,89,0.00,,CLR,0.00,VWS V13.01,2013-07-13 04:52:00,
2013-07-13 00:57:00,65.4,61.8,30.08,NE,56,0.0,1.0,88,0.00,,CLR,0.00,VWS V13.01,2013-07-13 04:57:00,
2013-07-13 01:02:00,65.4,61.8,30.08,NE,56,0.0,1.0,88,0.00,,CLR,0.00,VWS V13.01,2013-07-13 05:02:00,
2013-07-13 01:07:00,65.6,61.6,30.08,ENE,60,0.0,1.0,87,0.00,,CLR,0.00,VWS V13.01,2013-07-13 05:07:00,
2013-07-13 01:12:00,65.6,61.6,30.08,ENE,60,0.0,1.0,87,0.00,,CLR,0.00,VWS V13.01,2013-07-13 05:12:00,
2013-07-13 01:17:00,65.7,61.7,30.08,ENE,60,0.0,1.0,87,0.00,,CLR,0.00,VWS V13.01,2013-07-13 05:17:00,
2013-07-13 01:22:00,65.7,61.7,30.08,ENE,60,0.0,1.0,87,0.00,,CLR,0.00,VWS V13.01,2013-07-13 05:22:00,
2013-07-13 01:27:00,65.7,61.7,30.08,ENE,60,0.0,1.0,87,0.00,,CLR,0.00,VWS V13.01,2013-07-13 05:27:00,
2013-07-13 01:32:00,65.6,61.6,30.08,ENE,60,0.0,0.0,87,0.00,,CLR,0.00,VWS V13.01,2013-07-13 05:32:00,
2013-07-13 01:37:00,65.5,61.5,30.07,ENE,60,0.0,0.0,87,0.00,,CLR,0.00,VWS V13.01,2013-07-13 05:37:00,
2013-07-13 01:42:00,65.3,61.3,30.08,ENE,60,0.0,0.0,87,0.00,,CLR,0.00,VWS V13.01,2013-07-13 05:42:00,
2013-07-13 01:47:00,65.2,61.2,30.08,ENE,60,0.0,0.0,87,0.00,,CLR,0.00,VWS V13.01,2013-07-13 05:47:00,
2013-07-13 01:52:00,65.1,61.5,30.07,ENE,60,0.0,0.0,88,0.00,,CLR,0.00,VWS V13.01,2013-07-13 05:52:00,
2013-07-13 01:57:00,64.9,61.3,30.08,ENE,60,0.0,0.0,88,0.00,,CLR,0.00,VWS V13.01,2013-07-13 05:57:00,
2013-07-13 02:02:00,64.8,61.2,30.07,ENE,60,0.0,0.0,88,0.00,,CLR,0.00,VWS V13.01,2013-07-13 06:02:00,
2013-07-13 02:07:00,64.5,60.9,30.07,ENE,60,0.0,0.0,88,0.00,,CLR,0.00,VWS V13.01,2013-07-13 06:07:00,
2013-07-13 02:12:00,64.3,61.0,30.07,ENE,60,0.0,0.0,89,0.00,,CLR,0.00,VWS V13.01,2013-07-13 06:12:00,
2013-07-13 02:17:00,64.0,60.7,30.07,ENE,60,0.0,0.0,89,0.00,,CLR,0.00,VWS V13.01,2013-07-13 06:17:00,
2013-07-13 02:22:00,63.8,60.5,30.07,ENE,60,0.0,0.0,89,0.00,,CLR,0.00,VWS V13.01,2013-07-13 06:22:00,
2013-07-13 02:27:00,63.7,60.4,30.07,ENE,60,0.0,0.0,89,0.00,,CLR,0.00,VWS V13.01,2013-07-13 06:27:00,
2013-07-13 02:32:00,63.5,60.5,30.07,ENE,60,0.0,0.0,90,0.00,,CLR,0.00,VWS V13.01,2013-07-13 06:32:00,
2013-07-13 02:37:00,63.4,60.4,30.07,ENE,60,0.0,0.0,90,0.00,,CLR,0.00,VWS V13.01,2013-07-13 06:37:00,
2013-07-13 02:42:00,63.3,60.3,30.07,ENE,60,0.0,1.0,90,0.00,,CLR,0.00,VWS V13.01,2013-07-13 06:42:00,
2013-07-13 02:47:00,63.2,59.9,30.07,ENE,60,0.0,1.0,89,0.00,,CLR,0.00,VWS V13.01,2013-07-13 06:47:00,
2013-07-13 02:52:00,63.3,60.0,30.07,ENE,60,0.0,1.0,89,0.00,,CLR,0.00,VWS V13.01,2013-07-13 06:52:00,
2013-07-13 02:57:00,63.3,60.0,30.07,ENE,60,0.0,1.0,89,0.00,,CLR,0.00,VWS V13.01,2013-07-13 06:57:00,
2013-07-13 03:02:00,63.2,59.9,30.07,ENE,60,0.0,0.0,89,0.00,,CLR,0.00,VWS V13.01,2013-07-13 07:02:00,
2013-07-13 03:07:00,63.2,59.9,30.07,ENE,60,0.0,0.0,89,0.00,,CLR,0.00,VWS V13.01,2013-07-13 07:07:00,
2013-07-13 03:12:00,63.1,59.8,30.07,ENE,60,0.0,0.0,89,0.00,,CLR,0.00,VWS V13.01,2013-07-13 07:12:00,
2013-07-13 03:17:00,63.0,59.7,30.07,ENE,60,0.0,0.0,89,0.00,,CLR,0.00,VWS V13.01,2013-07-13 07:17:00,
2013-07-13 03:22:00,62.9,59.6,30.07,ENE,60,0.0,0.0,89,0.00,,CLR,0.00,VWS V13.01,2013-07-13 07:22:00,
2013-07-13 03:27:00,62.7,59.4,30.07,ENE,60,0.0,0.0,89,0.00,,CLR,0.00,VWS V13.01,2013-07-13 07:27:00,
2013-07-13 03:32:00,62.6,59.6,30.07,ENE,60,0.0,0.0,90,0.00,,CLR,0.00,VWS V13.01,2013-07-13 07:32:00,
2013-07-13 03:37:00,62.5,59.5,30.07,ENE,60,0.0,0.0,90,0.00,,CLR,0.00,VWS V13.01,2013-07-13 07:37:00,
2013-07-13 03:42:00,62.4,59.4,30.07,NE,48,0.0,2.0,90,0.00,,CLR,0.00,VWS V13.01,2013-07-13 07:42:00,
2013-07-13 03:47:00,62.6,59.6,30.07,NE,48,0.0,2.0,90,0.00,,CLR,0.00,VWS V13.01,2013-07-13 07:47:00,
2013-07-13 03:52:00,62.7,59.4,30.07,NE,48,0.0,2.0,89,0.00,,CLR,0.00,VWS V13.01,2013-07-13 07:52:00,
2013-07-13 03:57:00,62.8,59.5,30.07,NE,48,0.0,2.0,89,0.00,,CLR,0.00,VWS V13.01,2013-07-13 07:57:00,
2013-07-13 04:02:00,62.9,59.6,30.07,NE,48,0.0,0.0,89,0.00,,CLR,0.00,VWS V13.01,2013-07-13 08:02:00,
2013-07-13 04:07:00,62.9,59.3,30.07,NE,48,0.0,0.0,88,0.00,,CLR,0.00,VWS V13.01,2013-07-13 08:07:00,
2013-07-13 04:12:00,62.9,59.3,30.07,NE,48,0.0,0.0,88,0.00,,CLR,0.00,VWS V13.01,2013-07-13 08:12:00,
2013-07-13 04:17:00,62.8,59.2,30.07,NE,48,0.0,0.0,88,0.00,,CLR,0.00,VWS V13.01,2013-07-13 08:17:00,
2013-07-13 04:22:00,62.7,59.1,30.07,NE,48,0.0,0.0,88,0.00,,CLR,0.00,VWS V13.01,2013-07-13 08:22:00,
2013-07-13 04:27:00,62.7,59.1,30.08,NE,48,0.0,0.0,88,0.00,,CLR,0.00,VWS V13.01,2013-07-13 08:27:00,
2013-07-13 04:32:00,62.5,58.9,30.07,NE,48,0.0,0.0,88,0.00,,CLR,0.00,VWS V13.01,2013-07-13 08:32:00,
2013-07-13 04:37:00,62.4,58.8,30.07,NE,48,0.0,0.0,88,0.00,,CLR,0.00,VWS V13.01,2013-07-13 08:37:00,
2013-07-13 04:42:00,62.3,59.0,30.07,NE,48,0.0,0.0,89,0.00,,CLR,0.00,VWS V13.01,2013-07-13 08:42:00,
2013-07-13 04:47:00,62.3,59.0,30.07,NE,48,0.0,0.0,89,0.00,,CLR,0.00,VWS V13.01,2013-07-13 08:47:00,
2013-07-13 04:52:00,62.3,59.0,30.07,NE,48,0.0,0.0,89,0.00,,CLR,0.00,VWS V13.01,2013-07-13 08:52:00,
2013-07-13 04:58:00,62.3,59.0,30.07,NE,48,0.0,0.0,89,0.00,,CLR,0.00,VWS V13.01,2013-07-13 08:58:00,
2013-07-13 05:03:00,62.2,58.9,30.08,NE,48,0.0,0.0,89,0.00,,CLR,0.00,VWS V13.01,2013-07-13 09:03:00,
2013-07-13 05:08:00,62.2,58.9,30.08,NE,48,0.0,0.0,89,0.00,,CLR,0.00,VWS V13.01,2013-07-13 09:08:00,
2013-07-13 05:13:00,62.2,58.9,30.08,NE,48,0.0,0.0,89,0.00,,CLR,0.00,VWS V13.01,2013-07-13 09:13:00,
2013-07-13 05:18:00,62.2,58.9,30.09,NE,48,0.0,0.0,89,0.00,,CLR,0.00,VWS V13.01,2013-07-13 09:18:00,
2013-07-13 05:23:00,62.1,58.8,30.09,NE,48,0.0,0.0,89,0.00,,CLR,0.00,VWS V13.01,2013-07-13 09:23:00,
2013-07-13 05:28:00,62.1,58.8,30.09,NE,48,0.0,0.0,89,0.00,,CLR,0.00,VWS V13.01,2013-07-13 09:28:00,
2013-07-13 05:33:00,62.1,58.8,30.09,NE,48,0.0,0.0,89,0.00,,CLR,0.00,VWS V13.01,2013-07-13 09:33:00,
2013-07-13 05:38:00,62.2,58.9,30.08,NE,48,0.0,0.0,89,0.00,,CLR,0.00,VWS V13.01,2013-07-13 09:38:00,
2013-07-13 05:43:00,62.2,58.9,30.08,NE,48,0.0,0.0,89,0.00,,CLR,0.00,VWS V13.01,2013-07-13 09:43:00,
2013-07-13 05:48:00,62.2,58.9,30.08,NE,48,0.0,0.0,89,0.00,,CLR,0.00,VWS V13.01,2013-07-13 09:48:00,
2013-07-13 05:53:00,62.2,58.9,30.08,NE,48,0.0,0.0,89,0.00,,CLR,0.00,VWS V13.01,2013-07-13 09:53:00,
2013-07-13 05:58:00,62.2,58.9,30.09,NE,48,0.0,0.0,89,0.00,,CLR,0.00,VWS V13.01,2013-07-13 09:58:00,
2013-07-13 06:03:00,62.2,58.9,30.09,NE,48,0.0,0.0,89,0.00,,CLR,0.00,VWS V13.01,2013-07-13 10:03:00,
2013-07-13 06:08:00,62.2,59.2,30.09,NE,48,0.0,0.0,90,0.00,,CLR,0.00,VWS V13.01,2013-07-13 10:08:00,
2013-07-13 06:13:00,62.2,59.2,30.09,NE,48,0.0,0.0,90,0.00,,CLR,0.00,VWS V13.01,2013-07-13 10:13:00,
2013-07-13 06:18:00,62.2,59.2,30.09,NE,48,0.0,1.0,90,0.00,,CLR,0.00,VWS V13.01,2013-07-13 10:18:00,
2013-07-13 06:23:00,62.3,59.0,30.09,NE,48,0.0,1.0,89,0.00,,CLR,0.00,VWS V13.01,2013-07-13 10:23:00,
2013-07-13 06:28:00,62.4,59.4,30.09,NE,48,0.0,1.0,90,0.00,,CLR,0.00,VWS V13.01,2013-07-13 10:28:00,
2013-07-13 06:33:00,62.6,59.3,30.10,NE,48,0.0,0.0,89,0.00,,CLR,0.00,VWS V13.01,2013-07-13 10:33:00,
2013-07-13 06:38:00,62.7,59.4,30.10,NE,48,0.0,0.0,89,0.00,,CLR,0.00,VWS V13.01,2013-07-13 10:38:00,
2013-07-13 06:43:00,62.8,59.5,30.10,NE,48,0.0,1.0,89,0.00,,CLR,0.00,VWS V13.01,2013-07-13 10:43:00,
2013-07-13 06:48:00,63.0,59.7,30.10,NE,48,0.0,1.0,89,0.00,,CLR,0.00,VWS V13.01,2013-07-13 10:48:00,
2013-07-13 06:53:00,63.1,59.8,30.10,NE,48,0.0,1.0,89,0.00,,CLR,0.00,VWS V13.01,2013-07-13 10:53:00,
2013-07-13 06:58:00,63.2,59.9,30.10,NE,48,0.0,1.0,89,0.00,,CLR,0.00,VWS V13.01,2013-07-13 10:58:00,
2013-07-13 07:03:00,63.3,60.0,30.10,NE,48,0.0,0.0,89,0.00,,CLR,0.00,VWS V13.01,2013-07-13 11:03:00,
2013-07-13 07:08:00,63.5,60.2,30.10,NE,48,0.0,0.0,89,0.00,,CLR,0.00,VWS V13.01,2013-07-13 11:08:00,
2013-07-13 07:13:00,63.6,60.6,30.10,NE,48,0.0,0.0,90,0.00,,CLR,0.00,VWS V13.01,2013-07-13 11:13:00,
2013-07-13 07:18:00,63.7,60.7,30.11,NE,48,0.0,0.0,90,0.00,,CLR,0.00,VWS V13.01,2013-07-13 11:18:00,
2013-07-13 07:23:00,63.9,60.9,30.11,NE,48,0.0,0.0,90,0.00,,CLR,0.00,VWS V13.01,2013-07-13 11:23:00,
2013-07-13 07:28:00,64.0,61.3,30.11,NE,48,0.0,1.0,91,0.00,,CLR,0.00,VWS V13.01,2013-07-13 11:28:00,
2013-07-13 07:33:00,64.0,61.0,30.11,NE,48,0.0,0.0,90,0.00,,CLR,0.00,VWS V13.01,2013-07-13 11:33:00,
2013-07-13 07:38:00,64.2,61.5,30.11,NE,48,0.0,0.0,91,0.00,,CLR,0.00,VWS V13.01,2013-07-13 11:38:00,
2013-07-13 07:43:00,64.4,61.4,30.11,NE,48,0.0,0.0,90,0.00,,CLR,0.00,VWS V13.01,2013-07-13 11:43:00,
2013-07-13 07:48:00,64.7,62.0,30.12,NE,48,0.0,0.0,91,0.00,,CLR,0.00,VWS V13.01,2013-07-13 11:48:00,
2013-07-13 07:53:00,65.0,62.0,30.12,NE,48,0.0,0.0,90,0.00,,CLR,0.00,VWS V13.01,2013-07-13 11:53:00,
2013-07-13 07:58:00,65.4,62.4,30.12,NE,48,0.0,0.0,90,0.00,,CLR,0.00,VWS V13.01,2013-07-13 11:58:00,
2013-07-13 08:03:00,65.9,62.6,30.12,NE,48,0.0,1.0,89,0.00,,CLR,0.00,VWS V13.01,2013-07-13 12:03:00,
2013-07-13 08:08:00,66.4,62.7,30.13,NE,48,2.0,2.0,88,0.00,,CLR,0.00,VWS V13.01,2013-07-13 12:08:00,
2013-07-13 08:13:00,67.3,63.0,30.13,NE,48,0.0,2.0,86,0.00,,CLR,0.00,VWS V13.01,2013-07-13 12:13:00,
2013-07-13 08:18:00,68.2,63.5,30.13,East,82,1.0,2.0,85,0.00,,CLR,0.00,VWS V13.01,2013-07-13 12:18:00,
2013-07-13 08:23:00,68.9,63.2,30.13,East,97,0.0,3.0,82,0.00,,CLR,0.00,VWS V13.01,2013-07-13 12:23:00,
2013-07-13 08:28:00,69.4,63.0,30.13,East,95,1.0,3.0,80,0.00,,CLR,0.00,VWS V13.01,2013-07-13 12:28:00,
2013-07-13 08:33:00,69.5,63.1,30.13,ESE,103,1.0,3.0,80,0.00,,CLR,0.00,VWS V13.01,2013-07-13 12:33:00,
2013-07-13 08:38:00,69.7,63.3,30.13,ESE,105,1.0,3.0,80,0.00,,CLR,0.00,VWS V13.01,2013-07-13 12:38:00,
2013-07-13 08:43:00,69.8,63.4,30.13,WNW,292,0.0,3.0,80,0.00,,CLR,0.00,VWS V13.01,2013-07-13 12:43:00,
2013-07-13 08:48:00,70.0,63.2,30.13,NE,53,1.0,4.0,79,0.00,,CLR,0.00,VWS V13.01,2013-07-13 12:48:00,
2013-07-13 08:53:00,70.2,63.4,30.14,East,82,2.0,4.0,79,0.00,,CLR,0.00,VWS V13.01,2013-07-13 12:53:00,
2013-07-13 08:58:00,70.5,63.7,30.13,NE,53,1.0,5.0,79,0.00,,CLR,0.00,VWS V13.01,2013-07-13 12:58:00,
2013-07-13 09:03:00,71.1,63.9,30.14,ENE,71,4.0,4.0,78,0.00,,CLR,0.00,VWS V13.01,2013-07-13 13:03:00,
2013-07-13 09:08:00,71.7,64.8,30.13,WNW,290,0.0,4.0,79,0.00,,CLR,0.00,VWS V13.01,2013-07-13 13:08:00,
2013-07-13 09:13:00,72.4,65.5,30.13,NNE,15,1.0,4.0,79,0.00,,CLR,0.00,VWS V13.01,2013-07-13 13:13:00,
2013-07-13 09:18:00,73.0,65.7,30.13,NW,325,0.0,4.0,78,0.00,,CLR,0.00,VWS V13.01,2013-07-13 13:18:00,
2013-07-13 09:23:00,73.1,65.1,30.13,North,350,0.0,5.0,76,0.00,,CLR,0.00,VWS V13.01,2013-07-13 13:23:00,
2013-07-13 09:28:00,73.0,65.4,30.13,NNW,344,1.0,5.0,77,0.00,,CLR,0.00,VWS V13.01,2013-07-13 13:28:00,
2013-07-13 09:33:00,73.2,65.9,30.13,NNE,32,1.0,3.0,78,0.00,,CLR,0.00,VWS V13.01,2013-07-13 13:33:00,
2013-07-13 09:38:00,73.4,65.8,30.13,ENE,70,2.0,4.0,77,0.00,,CLR,0.00,VWS V13.01,2013-07-13 13:38:00,
2013-07-13 09:43:00,73.5,65.5,30.14,NE,50,0.0,5.0,76,0.00,,CLR,0.00,VWS V13.01,2013-07-13 13:43:00,
2013-07-13 09:48:00,73.5,65.9,30.14,NW,304,0.0,5.0,77,0.00,,CLR,0.00,VWS V13.01,2013-07-13 13:48:00,
2013-07-13 09:53:00,73.4,66.1,30.13,ENE,63,1.0,5.0,78,0.00,,CLR,0.00,VWS V13.01,2013-07-13 13:53:00,
2013-07-13 09:58:00,73.3,66.0,30.13,NE,46,0.0,5.0,78,0.00,,CLR,0.00,VWS V13.01,2013-07-13 13:58:00,
2013-07-13 10:03:00,73.4,66.5,30.13,ENE,58,2.0,3.0,79,0.00,,CLR,0.00,VWS V13.01,2013-07-13 14:03:00,
2013-07-13 10:08:00,73.7,66.4,30.13,ENE,63,0.0,3.0,78,0.00,,CLR,0.00,VWS V13.01,2013-07-13 14:08:00,
2013-07-13 10:13:00,74.0,66.3,30.13,NE,54,0.0,6.0,77,0.00,,CLR,0.00,VWS V13.01,2013-07-13 14:13:00,
2013-07-13 10:18:00,74.6,66.9,30.13,NE,53,0.0,6.0,77,0.00,,CLR,0.00,VWS V13.01,2013-07-13 14:18:00,
2013-07-13 10:23:00,75.3,67.6,30.13,SW,227,0.0,6.0,77,0.00,,CLR,0.00,VWS V13.01,2013-07-13 14:23:00,
2013-07-13 10:28:00,75.6,67.5,30.12,North,5,0.0,6.0,76,0.00,,CLR,0.00,VWS V13.01,2013-07-13 14:28:00,
2013-07-13 10:33:00,76.2,68.1,30.12,SSE,149,1.0,3.0,76,0.00,,CLR,0.00,VWS V13.01,2013-07-13 14:33:00,
2013-07-13 10:38:00,76.7,67.4,30.12,ENE,67,0.0,4.0,73,0.00,,CLR,0.00,VWS V13.01,2013-07-13 14:38:00,
2013-07-13 10:43:00,76.7,67.8,30.12,NE,34,0.0,4.0,74,0.00,,CLR,0.00,VWS V13.01,2013-07-13 14:43:00,
2013-07-13 10:48:00,77.1,68.2,30.12,North,5,0.0,4.0,74,0.00,,CLR,0.00,VWS V13.01,2013-07-13 14:48:00,
2013-07-13 10:53:00,77.1,67.8,30.12,ENE,67,0.0,5.0,73,0.00,,CLR,0.00,VWS V13.01,2013-07-13 14:53:00,
2013-07-13 10:58:00,77.1,68.2,30.12,NW,308,1.0,5.0,74,0.00,,CLR,0.00,VWS V13.01,2013-07-13 14:58:00,
2013-07-13 11:03:00,77.2,69.4,30.12,NW,308,0.0,3.0,77,0.00,,CLR,0.00,VWS V13.01,2013-07-13 15:03:00,
2013-07-13 11:08:00,77.6,69.4,30.12,NE,45,0.0,3.0,76,0.00,,CLR,0.00,VWS V13.01,2013-07-13 15:08:00,
2013-07-13 11:13:00,78.0,69.4,30.12,WNW,286,0.0,4.0,75,0.00,,CLR,0.00,VWS V13.01,2013-07-13 15:13:00,
2013-07-13 11:18:00,78.0,69.4,30.12,NNW,329,1.0,4.0,75,0.00,,CLR,0.00,VWS V13.01,2013-07-13 15:18:00,
2013-07-13 11:23:00,77.8,69.2,30.12,North,355,2.0,4.0,75,0.00,,CLR,0.00,VWS V13.01,2013-07-13 15:23:00,
2013-07-13 11:28:00,77.9,69.3,30.12,North,5,4.0,4.0,75,0.00,,CLR,0.00,VWS V13.01,2013-07-13 15:28:00,
2013-07-13 11:33:00,78.0,70.2,30.12,West,271,4.0,5.0,77,0.00,,CLR,0.00,VWS V13.01,2013-07-13 15:33:00,
2013-07-13 11:38:00,77.3,69.5,30.13,West,280,2.0,7.0,77,0.00,,CLR,0.00,VWS V13.01,2013-07-13 15:38:00,
2013-07-13 11:43:00,76.9,69.9,30.13,NNW,327,1.0,7.0,79,0.00,,CLR,0.00,VWS V13.01,2013-07-13 15:43:00,
2013-07-13 11:48:00,76.8,69.4,30.13,West,262,4.0,7.0,78,0.00,,CLR,0.00,VWS V13.01,2013-07-13 15:48:00,
2013-07-13 11:53:00,76.3,69.3,30.13,NW,313,0.0,10.0,79,0.00,,CLR,0.00,VWS V13.01,2013-07-13 15:53:00,
2013-07-13 11:58:00,76.1,69.1,30.13,East,88,2.0,10.0,79,0.00,,CLR,0.00,VWS V13.01,2013-07-13 15:58:00,
2013-07-13 12:03:00,76.2,69.2,30.13,West,279,0.0,7.0,79,0.00,,CLR,0.00,VWS V13.01,2013-07-13 16:03:00,
2013-07-13 12:08:00,76.3,69.3,30.13,NNW,346,4.0,7.0,79,0.00,,CLR,0.00,VWS V13.01,2013-07-13 16:08:00,
2013-07-13 12:13:00,76.4,69.8,30.13,NW,317,3.0,7.0,80,0.00,,CLR,0.00,VWS V13.01,2013-07-13 16:13:00,
2013-07-13 12:18:00,76.2,69.2,30.13,NE,44,2.0,7.0,79,0.00,,CLR,0.00,VWS V13.01,2013-07-13 16:18:00,
2013-07-13 12:23:00,76.5,69.9,30.12,North,355,0.0,7.0,80,0.00,,CLR,0.00,VWS V13.01,2013-07-13 16:23:00,
2013-07-13 12:28:00,76.9,69.9,30.12,WSW,250,0.0,11.0,79,0.00,,CLR,0.00,VWS V13.01,2013-07-13 16:28:00,
2013-07-13 12:33:00,76.9,69.2,30.12,NNW,328,0.0,9.0,77,0.00,,CLR,0.00,VWS V13.01,2013-07-13 16:33:00,
2013-07-13 12:38:00,76.9,69.5,30.12,North,350,1.0,9.0,78,0.00,,CLR,0.00,VWS V13.01,2013-07-13 16:38:00,
2013-07-13 12:43:00,76.9,69.5,30.12,NE,53,4.0,9.0,78,0.00,,CLR,0.00,VWS V13.01,2013-07-13 16:43:00,
2013-07-13 12:48:00,77.2,69.8,30.12,East,92,1.0,9.0,78,0.00,,CLR,0.00,VWS V13.01,2013-07-13 16:48:00,
2013-07-13 12:53:00,77.4,70.0,30.12,NE,53,4.0,9.0,78,0.00,,CLR,0.00,VWS V13.01,2013-07-13 16:53:00,
2013-07-13 12:58:00,77.6,69.8,30.12,North,360,0.0,9.0,77,0.00,,CLR,0.00,VWS V13.01,2013-07-13 16:58:00,
2013-07-13 13:03:00,77.5,69.3,30.12,ENE,67,3.0,7.0,76,0.00,,CLR,0.00,VWS V13.01,2013-07-13 17:03:00,
2013-07-13 13:08:00,77.4,69.2,30.12,North,11,3.0,7.0,76,0.00,,CLR,0.00,VWS V13.01,2013-07-13 17:08:00,
2013-07-13 13:13:00,77.4,68.9,30.12,West,277,0.0,7.0,75,0.00,,CLR,0.00,VWS V13.01,2013-07-13 17:13:00,
2013-07-13 13:18:00,77.3,68.8,30.12,WSW,250,0.0,7.0,75,0.00,,CLR,0.00,VWS V13.01,2013-07-13 17:18:00,
2013-07-13 13:23:00,77.2,69.1,30.12,SW,225,3.0,7.0,76,0.00,,CLR,0.00,VWS V13.01,2013-07-13 17:23:00,
2013-07-13 13:28:00,77.3,69.9,30.12,WNW,289,0.0,7.0,78,0.00,,CLR,0.00,VWS V13.01,2013-07-13 17:28:00,
2013-07-13 13:33:00,77.3,69.2,30.12,NE,35,0.0,5.0,76,0.00,,CLR,0.00,VWS V13.01,2013-07-13 17:33:00,
2013-07-13 13:38:00,77.0,68.9,30.12,North,5,4.0,5.0,76,0.00,,CLR,0.00,VWS V13.01,2013-07-13 17:38:00,
2013-07-13 13:43:00,76.7,69.3,30.12,East,80,0.0,5.0,78,0.00,,CLR,0.00,VWS V13.01,2013-07-13 17:43:00,
2013-07-13 13:48:00,76.6,68.9,30.12,NNW,339,2.0,11.0,77,0.00,,CLR,0.00,VWS V13.01,2013-07-13 17:48:00,
2013-07-13 13:53:00,76.4,69.0,30.12,ENE,76,3.0,11.0,78,0.00,,CLR,0.00,VWS V13.01,2013-07-13 17:53:00,
2013-07-13 13:59:00,76.2,69.2,30.12,ENE,78,2.0,11.0,79,0.00,,CLR,0.00,VWS V13.01,2013-07-13 17:59:00,
2013-07-13 14:04:00,76.1,68.8,30.12,NE,54,2.0,6.0,78,0.00,,BKN060,0.00,VWS V13.01,2013-07-13 18:04:00,
2013-07-13 14:09:00,76.0,68.3,30.13,NNW,344,1.0,9.0,77,0.00,,BKN060,0.00,VWS V13.01,2013-07-13 18:09:00,
2013-07-13 14:14:00,76.0,69.0,30.13,WNW,286,1.0,9.0,79,0.00,,BKN060,0.00,VWS V13.01,2013-07-13 18:14:00,
2013-07-13 14:19:00,76.6,69.6,30.13,NNW,344,2.0,9.0,79,0.00,,BKN060,0.00,VWS V13.01,2013-07-13 18:19:00,
2013-07-13 14:24:00,76.7,69.3,30.12,NE,37,2.0,9.0,78,0.00,,BKN060,0.00,VWS V13.01,2013-07-13 18:24:00,
2013-07-13 14:29:00,76.5,69.1,30.13,East,86,0.0,9.0,78,0.00,,BKN060,0.00,VWS V13.01,2013-07-13 18:29:00,
2013-07-13 14:34:00,76.6,69.6,30.13,WSW,257,1.0,7.0,79,0.00,,BKN060,0.00,VWS V13.01,2013-07-13 18:34:00,
2013-07-13 14:39:00,76.7,69.7,30.13,NE,42,4.0,7.0,79,0.00,,BKN060,0.00,VWS V13.01,2013-07-13 18:39:00,
2013-07-13 14:44:00,76.8,69.1,30.12,WSW,258,6.0,7.0,77,0.00,,BKN060,0.00,VWS V13.01,2013-07-13 18:44:00,
2013-07-13 14:49:00,77.2,69.4,30.12,WNW,291,1.0,7.0,77,0.00,,BKN060,0.00,VWS V13.01,2013-07-13 18:49:00,
2013-07-13 14:54:00,77.2,68.7,30.12,NNE,24,3.0,7.0,75,0.00,,BKN060,0.00,VWS V13.01,2013-07-13 18:54:00,
2013-07-13 14:59:00,77.4,69.2,30.12,ENE,78,4.0,7.0,76,0.00,,BKN060,0.00,VWS V13.01,2013-07-13 18:59:00,
2013-07-13 15:04:00,77.4,68.5,30.13,NE,35,0.0,6.0,74,0.00,,BKN060,0.00,VWS V13.01,2013-07-13 19:04:00,
2013-07-13 15:09:00,77.6,69.4,30.13,NNE,12,0.0,6.0,76,0.00,,BKN060,0.00,VWS V13.01,2013-07-13 19:09:00,
2013-07-13 15:14:00,77.6,68.7,30.13,West,267,1.0,6.0,74,0.00,,BKN060,0.00,VWS V13.01,2013-07-13 19:14:00,
2013-07-13 15:19:00,77.4,68.5,30.13,North,351,1.0,6.0,74,0.00,,BKN060,0.00,VWS V13.01,2013-07-13 19:19:00,
2013-07-13 15:24:00,77.1,68.2,30.13,NE,54,5.0,6.0,74,0.00,,BKN060,0.00,VWS V13.01,2013-07-13 19:24:00,
2013-07-13 15:29:00,77.0,68.1,30.13,ENE,65,0.0,6.0,74,0.00,,BKN060,0.00,VWS V13.01,2013-07-13 19:29:00,
2013-07-13 15:34:00,77.0,68.1,30.13,ENE,61,2.0,6.0,74,0.00,,BKN060,0.00,VWS V13.01,2013-07-13 19:34:00,
2013-07-13 15:39:00,77.2,68.7,30.13,ENE,59,3.0,6.0,75,0.00,,BKN060,0.00,VWS V13.01,2013-07-13 19:39:00,
2013-07-13 15:44:00,77.5,68.6,30.13,WNW,286,1.0,7.0,74,0.00,,BKN060,0.00,VWS V13.01,2013-07-13 19:44:00,
2013-07-13 15:49:00,77.5,67.8,30.13,ENE,75,1.0,9.0,72,0.00,,BKN060,0.00,VWS V13.01,2013-07-13 19:49:00,
2013-07-13 15:54:00,77.2,68.3,30.13,NE,47,1.0,9.0,74,0.00,,BKN060,0.00,VWS V13.01,2013-07-13 19:54:00,
2013-07-13 15:59:00,77.0,68.1,30.13,ENE,59,4.0,9.0,74,0.00,,BKN060,0.00,VWS V13.01,2013-07-13 19:59:00,
2013-07-13 16:04:00,77.0,68.5,30.13,NNE,30,5.0,5.0,75,0.00,,OVC060,0.00,VWS V13.01,2013-07-13 20:04:00,
2013-07-13 16:09:00,77.1,69.0,30.13,ENE,74,0.0,6.0,76,0.00,,OVC060,0.00,VWS V13.01,2013-07-13 20:09:00,
2013-07-13 16:14:00,77.3,69.2,30.13,WNW,298,1.0,6.0,76,0.00,,OVC060,0.00,VWS V13.01,2013-07-13 20:14:00,
2013-07-13 16:19:00,77.4,69.6,30.13,North,351,1.0,6.0,77,0.00,,OVC060,0.00,VWS V13.01,2013-07-13 20:19:00,
2013-07-13 16:24:00,77.3,69.2,30.13,ENE,76,2.0,6.0,76,0.00,,OVC060,0.00,VWS V13.01,2013-07-13 20:24:00,
2013-07-13 16:29:00,77.1,69.0,30.13,NE,54,2.0,6.0,76,0.00,,OVC060,0.00,VWS V13.01,2013-07-13 20:29:00,
2013-07-13 16:34:00,77.0,68.9,30.13,NE,49,1.0,5.0,76,0.00,,OVC060,0.00,VWS V13.01,2013-07-13 20:34:00,
2013-07-13 16:39:00,77.1,69.3,30.13,NE,55,1.0,5.0,77,0.00,,OVC060,0.00,VWS V13.01,2013-07-13 20:39:00,
2013-07-13 16:44:00,77.2,69.1,30.13,East,80,3.0,6.0,76,0.00,,OVC060,0.00,VWS V13.01,2013-07-13 20:44:00,
2013-07-13 16:49:00,77.3,69.5,30.13,NNE,24,0.0,6.0,77,0.00,,OVC060,0.00,VWS V13.01,2013-07-13 20:49:00,
2013-07-13 16:54:00,77.3,69.5,30.13,ENE,57,3.0,6.0,77,0.00,,OVC060,0.00,VWS V13.01,2013-07-13 20:54:00,
2013-07-13 16:59:00,77.2,69.8,30.12,ENE,74,0.0,6.0,78,0.00,,OVC060,0.00,VWS V13.01,2013-07-13 20:59:00,
2013-07-13 17:04:00,77.2,69.8,30.12,ENE,66,1.0,3.0,78,0.00,,OVC065,0.00,VWS V13.01,2013-07-13 21:04:00,
2013-07-13 17:09:00,77.2,69.8,30.12,NE,45,2.0,3.0,78,0.00,,OVC065,0.00,VWS V13.01,2013-07-13 21:09:00,
2013-07-13 17:14:00,77.2,69.4,30.12,East,84,1.0,4.0,77,0.00,,OVC065,0.00,VWS V13.01,2013-07-13 21:14:00,
2013-07-13 17:19:00,77.3,69.5,30.12,NE,39,4.0,6.0,77,0.00,,OVC065,0.00,VWS V13.01,2013-07-13 21:19:00,
2013-07-13 17:24:00,77.3,69.2,30.12,ENE,66,2.0,6.0,76,0.00,,OVC065,0.00,VWS V13.01,2013-07-13 21:24:00,
2013-07-13 17:29:00,77.3,68.8,30.12,NE,38,2.0,6.0,75,0.00,,OVC065,0.00,VWS V13.01,2013-07-13 21:29:00,
2013-07-13 17:34:00,77.4,69.2,30.12,NE,38,0.0,3.0,76,0.00,,OVC065,0.00,VWS V13.01,2013-07-13 21:34:00,
2013-07-13 17:39:00,77.4,69.2,30.12,NE,53,1.0,4.0,76,0.00,,OVC065,0.00,VWS V13.01,2013-07-13 21:39:00,
2013-07-13 17:44:00,77.5,69.7,30.12,NE,47,3.0,4.0,77,0.00,,OVC065,0.00,VWS V13.01,2013-07-13 21:44:00,
2013-07-13 17:49:00,77.5,69.7,30.12,NE,44,2.0,4.0,77,0.00,,OVC065,0.00,VWS V13.01,2013-07-13 21:49:00,
2013-07-13 17:54:00,77.6,69.8,30.12,East,83,0.0,5.0,77,0.00,,OVC065,0.00,VWS V13.01,2013-07-13 21:54:00,
2013-07-13 17:59:00,77.8,70.0,30.12,NE,42,1.0,5.0,77,0.00,,OVC065,0.00,VWS V13.01,2013-07-13 21:59:00,
2013-07-13 18:00:00,77.8,70.0,30.12,ENE,69,2.0,3.0,77,0.00,,OVC065,0.00,VWS V13.01,2013-07-13 22:00:00,
2013-07-13 18:05:00,77.9,70.1,30.12,ENE,69,0.0,3.0,77,0.00,,OVC060,0.00,VWS V13.01,2013-07-13 22:05:00,
2013-07-13 18:10:00,78.1,70.3,30.12,ENE,78,0.0,5.0,77,0.00,,OVC060,0.00,VWS V13.01,2013-07-13 22:10:00,
2013-07-13 18:15:00,78.2,70.0,30.12,East,98,0.0,6.0,76,0.00,,OVC060,0.00,VWS V13.01,2013-07-13 22:15:00,
2013-07-13 18:20:00,78.1,69.9,30.12,NE,51,0.0,6.0,76,0.00,,OVC060,0.00,VWS V13.01,2013-07-13 22:20:00,
2013-07-13 18:25:00,78.0,70.2,30.11,ENE,75,1.0,6.0,77,0.00,,OVC060,0.00,VWS V13.01,2013-07-13 22:25:00,
2013-07-13 18:30:00,78.0,70.6,30.11,ENE,75,2.0,4.0,78,0.00,,OVC060,0.00,VWS V13.01,2013-07-13 22:30:00,
2013-07-13 18:35:00,78.0,70.2,30.12,NE,45,1.0,4.0,77,0.00,,OVC060,0.00,VWS V13.01,2013-07-13 22:35:00,
2013-07-13 18:40:00,77.9,70.9,30.12,NE,42,1.0,4.0,79,0.00,,OVC060,0.00,VWS V13.01,2013-07-13 22:40:00,
2013-07-13 18:45:00,77.9,70.9,30.12,NNE,13,1.0,4.0,79,0.00,,OVC060,0.00,VWS V13.01,2013-07-13 22:45:00,
2013-07-13 18:51:00,77.9,70.9,30.12,NNE,26,0.0,4.0,79,0.00,,OVC060,0.00,VWS V13.01,2013-07-13 22:51:00,
2013-07-13 18:56:00,77.9,70.9,30.12,NNE,26,0.0,4.0,79,0.00,,OVC060,0.00,VWS V13.01,2013-07-13 22:56:00,
2013-07-13 19:01:00,78.0,71.3,30.12,NNE,26,0.0,0.0,80,0.00,,OVC060,0.00,VWS V13.01,2013-07-13 23:01:00,
2013-07-13 19:06:00,78.0,71.3,30.12,NNE,26,0.0,1.0,80,0.00,,OVC060,0.00,VWS V13.01,2013-07-13 23:06:00,
2013-07-13 19:11:00,78.1,71.4,30.12,NNE,26,0.0,1.0,80,0.00,,OVC060,0.00,VWS V13.01,2013-07-13 23:11:00,
2013-07-13 19:16:00,78.1,71.4,30.12,NNE,26,0.0,1.0,80,0.00,,OVC060,0.00,VWS V13.01,2013-07-13 23:16:00,
2013-07-13 19:21:00,78.1,71.4,30.12,NNE,26,0.0,3.0,80,0.00,,OVC060,0.00,VWS V13.01,2013-07-13 23:21:00,
2013-07-13 19:26:00,78.0,71.3,30.12,NNE,26,0.0,3.0,80,0.00,,OVC060,0.00,VWS V13.01,2013-07-13 23:26:00,
2013-07-13 19:31:00,78.0,71.3,30.12,NNE,26,0.0,0.0,80,0.00,,OVC060,0.00,VWS V13.01,2013-07-13 23:31:00,
2013-07-13 19:36:00,77.9,71.6,30.12,NNE,26,0.0,0.0,81,0.00,,OVC060,0.00,VWS V13.01,2013-07-13 23:36:00,
2013-07-13 19:41:00,77.9,71.6,30.12,NNE,26,0.0,0.0,81,0.00,,OVC060,0.00,VWS V13.01,2013-07-13 23:41:00,
2013-07-13 19:46:00,78.0,72.1,30.12,NNE,26,0.0,0.0,82,0.00,,OVC060,0.00,VWS V13.01,2013-07-13 23:46:00,
2013-07-13 19:51:00,78.0,72.1,30.12,NNE,26,0.0,0.0,82,0.00,,OVC060,0.00,VWS V13.01,2013-07-13 23:51:00,
2013-07-13 19:56:00,77.9,72.0,30.12,NNE,26,0.0,0.0,82,0.00,,OVC060,0.00,VWS V13.01,2013-07-13 23:56:00,
2013-07-13 20:01:00,77.9,71.6,30.12,NNE,26,0.0,0.0,81,0.00,,OVC060,0.00,VWS V13.01,2013-07-14 00:01:00,
2013-07-13 20:06:00,77.8,71.5,30.12,NNE,26,0.0,0.0,81,0.00,,OVC060,0.00,VWS V13.01,2013-07-14 00:06:00,
2013-07-13 20:11:00,77.8,71.5,30.12,NNE,26,0.0,0.0,81,0.00,,OVC060,0.00,VWS V13.01,2013-07-14 00:11:00,
2013-07-13 20:16:00,77.7,71.4,30.12,NNE,26,0.0,0.0,81,0.00,,OVC060,0.00,VWS V13.01,2013-07-14 00:16:00,
2013-07-13 20:21:00,77.6,71.3,30.12,NNE,26,0.0,0.0,81,0.00,,OVC060,0.00,VWS V13.01,2013-07-14 00:21:00,
2013-07-13 20:26:00,77.5,71.2,30.12,NNE,26,0.0,0.0,81,0.00,,OVC060,0.00,VWS V13.01,2013-07-14 00:26:00,
2013-07-13 20:31:00,77.3,71.4,30.12,NNE,26,0.0,0.0,82,0.00,,OVC060,0.00,VWS V13.01,2013-07-14 00:31:00,
2013-07-13 20:36:00,77.1,71.5,30.12,NNE,26,0.0,0.0,83,0.00,,OVC060,0.00,VWS V13.01,2013-07-14 00:36:00,
2013-07-13 20:41:00,76.9,71.7,30.12,NNE,26,0.0,0.0,84,0.00,,OVC060,0.00,VWS V13.01,2013-07-14 00:41:00,
2013-07-13 20:46:00,76.6,71.4,30.12,NNE,26,0.0,0.0,84,0.00,,OVC060,0.00,VWS V13.01,2013-07-14 00:46:00,
2013-07-13 20:51:00,76.4,71.6,30.13,NNE,26,0.0,0.0,85,0.00,,OVC060,0.00,VWS V13.01,2013-07-14 00:51:00,
2013-07-13 20:56:00,76.2,71.4,30.13,NNE,26,0.0,0.0,85,0.00,,OVC060,0.00,VWS V13.01,2013-07-14 00:56:00,
2013-07-13 21:01:00,76.1,71.6,30.13,NNE,26,0.0,0.0,86,0.00,,OVC060,0.00,VWS V13.01,2013-07-14 01:01:00,
2013-07-13 21:06:00,75.9,71.4,30.13,NNE,26,0.0,0.0,86,0.00,,OVC060,0.00,VWS V13.01,2013-07-14 01:06:00,
2013-07-13 21:11:00,75.8,71.3,30.13,NNE,26,0.0,0.0,86,0.00,,OVC060,0.00,VWS V13.01,2013-07-14 01:11:00,
2013-07-13 21:16:00,75.6,71.5,30.13,NNE,26,0.0,0.0,87,0.00,,OVC060,0.00,VWS V13.01,2013-07-14 01:16:00,
2013-07-13 21:21:00,75.5,71.4,30.13,NNE,26,0.0,0.0,87,0.00,,OVC060,0.00,VWS V13.01,2013-07-14 01:21:00,
2013-07-13 21:26:00,75.4,71.3,30.13,NNE,26,0.0,0.0,87,0.00,,OVC060,0.00,VWS V13.01,2013-07-14 01:26:00,
2013-07-13 21:31:00,75.2,71.1,30.14,NNE,26,0.0,0.0,87,0.00,,OVC060,0.00,VWS V13.01,2013-07-14 01:31:00,
2013-07-13 21:36:00,75.1,71.0,30.14,NNE,26,0.0,0.0,87,0.00,,OVC060,0.00,VWS V13.01,2013-07-14 01:36:00,
2013-07-13 21:41:00,75.0,71.2,30.14,NNE,26,0.0,0.0,88,0.00,,OVC060,0.00,VWS V13.01,2013-07-14 01:41:00,
2013-07-13 21:46:00,74.9,71.1,30.13,NNE,26,0.0,0.0,88,0.00,,OVC060,0.00,VWS V13.01,2013-07-14 01:46:00,
2013-07-13 21:51:00,74.8,71.0,30.13,NNE,26,0.0,0.0,88,0.00,,OVC060,0.00,VWS V13.01,2013-07-14 01:51:00,
2013-07-13 21:56:00,74.7,70.9,30.14,NNE,26,0.0,0.0,88,0.00,,OVC060,0.00,VWS V13.01,2013-07-14 01:56:00,
2013-07-13 22:01:00,74.4,70.6,30.14,NNE,26,0.0,0.0,88,0.00,,BKN060,0.00,VWS V13.01,2013-07-14 02:01:00,
2013-07-13 22:06:00,74.1,70.7,30.14,NNE,26,0.0,0.0,89,0.00,,BKN060,0.00,VWS V13.01,2013-07-14 02:06:00,
2013-07-13 22:11:00,73.9,70.1,30.14,NNE,26,0.0,0.0,88,0.00,,BKN060,0.00,VWS V13.01,2013-07-14 02:11:00,
2013-07-13 22:16:00,73.6,70.2,30.14,NNE,26,0.0,0.0,89,0.00,,BKN060,0.00,VWS V13.01,2013-07-14 02:16:00,
2013-07-13 22:21:00,73.3,69.9,30.15,NNE,26,0.0,0.0,89,0.00,,BKN060,0.00,VWS V13.01,2013-07-14 02:21:00,
2013-07-13 22:26:00,73.1,69.7,30.15,NNE,26,0.0,0.0,89,0.00,,BKN060,0.00,VWS V13.01,2013-07-14 02:26:00,
2013-07-13 22:31:00,72.9,69.5,30.15,NNE,26,0.0,0.0,89,0.00,,BKN060,0.00,VWS V13.01,2013-07-14 02:31:00,
2013-07-13 22:36:00,72.7,69.6,30.15,NNE,26,0.0,0.0,90,0.00,,BKN060,0.00,VWS V13.01,2013-07-14 02:36:00,
2013-07-13 22:41:00,72.5,69.4,30.15,NNE,26,0.0,0.0,90,0.00,,BKN060,0.00,VWS V13.01,2013-07-14 02:41:00,
2013-07-13 22:46:00,72.3,69.2,30.16,NNE,26,0.0,0.0,90,0.00,,BKN060,0.00,VWS V13.01,2013-07-14 02:46:00,
2013-07-13 22:51:00,72.1,69.3,30.16,NNE,26,0.0,0.0,91,0.00,,BKN060,0.00,VWS V13.01,2013-07-14 02:51:00,
2013-07-13 22:56:00,71.8,69.0,30.16,NNE,26,0.0,0.0,91,0.00,,BKN060,0.00,VWS V13.01,2013-07-14 02:56:00,
2013-07-13 23:01:00,71.5,68.7,30.16,NNE,26,0.0,0.0,91,0.00,,BKN060,0.00,VWS V13.01,2013-07-14 03:01:00,
2013-07-13 23:06:00,71.3,68.5,30.17,NNE,26,0.0,0.0,91,0.00,,CLR,0.00,VWS V13.01,2013-07-14 03:06:00,
2013-07-13 23:11:00,71.1,68.7,30.16,NNE,26,0.0,0.0,92,0.00,,CLR,0.00,VWS V13.01,2013-07-14 03:11:00,
2013-07-13 23:16:00,70.9,68.5,30.16,NNE,26,0.0,0.0,92,0.00,,CLR,0.00,VWS V13.01,2013-07-14 03:16:00,
2013-07-13 23:21:00,70.7,68.3,30.16,NNE,26,0.0,0.0,92,0.00,,CLR,0.00,VWS V13.01,2013-07-14 03:21:00,
2013-07-13 23:26:00,70.6,68.2,30.17,NNE,26,0.0,0.0,92,0.00,,CLR,0.00,VWS V13.01,2013-07-14 03:26:00,
2013-07-13 23:31:00,70.4,68.3,30.17,NNE,26,0.0,0.0,93,0.00,,CLR,0.00,VWS V13.01,2013-07-14 03:31:00,
2013-07-13 23:36:00,70.3,68.2,30.17,NNE,26,0.0,0.0,93,0.00,,CLR,0.00,VWS V13.01,2013-07-14 03:36:00,
2013-07-13 23:41:00,70.2,68.1,30.17,NNE,26,0.0,0.0,93,0.00,,CLR,0.00,VWS V13.01,2013-07-14 03:41:00,
2013-07-13 23:46:00,70.1,68.0,30.16,NNE,26,0.0,0.0,93,0.00,,CLR,0.00,VWS V13.01,2013-07-14 03:46:00,
2013-07-13 23:51:00,70.0,67.9,30.17,NNE,26,0.0,0.0,93,0.00,,CLR,0.00,VWS V13.01,2013-07-14 03:51:00,
2013-07-13 23:56:00,69.9,67.8,30.17,NNE,26,0.0,0.0,93,0.00,,CLR,0.00,VWS V13.01,2013-07-14 03:56:00,